sat.trackr.live / text

‹ back to catalog

2025-013A

NORAD 62729 · 2025-013A

PAYLOAD ACTIVE UNKNOWN

§ Identity

Operator
Country
PRC
Launch date
2025-01-20
Launch site
JSC
Launch vehicle
Mass (kg)
RCS (m²)

External: N2YO · Heavens-Above · Gunter

§ Orbital elements

Epoch: 2026-05-25T05:14:25.569600Z

Period
93.89 min
Inclination
97.6391°
Eccentricity
0.0008675
Mean motion
15.33725682 rev/d
Perigee alt
458.8 km
Apogee alt
470.6 km
Semi-major
6,842.8 km
B*
9.6204e-4
RAAN
323.0761°
Arg perigee
21.1870°
Mean anomaly
338.9729°
Rev number
7,443

§ Raw data

2025-013A1 62729U 25013A   26145.21835150  .00031420  00000+0  96204-3 0  99932 62729  97.6391 323.0761 0008675  21.1870 338.9729 15.33725682 74431

JSON: /api/v1/satellites/62729 · /tle

For live sub-satellite position, see the globe view (requires WebGL).

§ Visibility from observer

Set your observer location to see the next 7 days of passes ≥ 10°. The values pass through the URL so the page stays shareable.

No JS? Fill the form by hand. The geolocation button needs JavaScript.